Tracking 34717 objects as of 15-Jul-2026
HD Live streaming from Space Station
objects crossing your sky now

METEOR 2-11 DEB

Track METEOR 2-11 DEB now!
10-day predictions


NORAD ID: 40704
Int'l Code: 1984-072F
Perigee: 885.8 km
Apogee: 921.8 km
Inclination: 82.5 °
Period: 102.9 minutes
Semi major axis: 7274 km
RCS: Unknown
Launch date: July 5, 1984
Source: Commonwealth of Independent States (former USSR) (CIS)
Launch site: PLESETSK MISSILE AND SPACE COMPLEX (PKMTR)

Note: This is SATELLITE DEBRIS
Your satellite tracking list
Your tracking list is empty




NASA's NSSDC Master Catalog

Two Line Element Set (TLE):
1 40704U 84072F   26190.70369053  .00001585  00000-0  10810-2 0  9998
2 40704  82.5203 347.1276 0024774 254.2263 105.6174 13.99180167570534
Source of the keplerian elements: AFSPC